[[{"header":{"parameterUnit":"m.s-1","parameterCategory":1,"la1":30.2991,"la2":30.254,"lo1":-89.0895,"lo2":-89.0444,"dy":0.0017,"dx":0.0017,"nx":28,"ny":28,"refTime":"2024-04-09T03:00:00:Z","depth":0,"parameterNumber":2,"parameterNumberName":"U-component_of_WINDS"},"data":[0,0,0,0,0,0,0,0,0,0,0,0,0,0,0,0,0,0,0,0,0,0,0,0,0,0,0,0,0,0,0,0,0,0,0,0,0,0,0,0,0,0,0,0,0,0,0,0,0,0,0,0,0,0,0,0,0,0,-6.6795,-6.6796,0,-6.6927,-6.6929,-6.693,-6.6955,-6.6954,-6.6953,-6.6952,-6.7083,-6.7087,-6.7092,0,0,0,0,0,0,0,0,0,0,0,0,0,-6.6561,-6.6565,-6.6795,-6.6796,-6.6798,-6.6927,-6.6929,-6.6931,-6.6955,-6.6954,-6.6953,-6.6951,-6.7082,-6.7087,-6.7092,0,0,0,0,0,0,0,0,0,0,0,0,0,-6.6675,-6.6566,-6.6794,-6.6826,-6.683,-6.6927,-6.6929,-6.6931,-6.6955,-6.6954,-6.6952,-6.6951,-6.708,-6.7086,-6.7093,-6.7166,0,0,-6.7113,-6.7116,0,0,0,0,0,0,0,0,-6.6668,-6.6683,-6.682,-6.6824,-6.6829,-6.6923,-6.6895,-6.701,-6.6956,-6.6908,-6.6952,-6.695,-6.7031,-6.7041,-6.707,-6.7172,-6.7178,-6.7114,-6.7118,-6.7121,-6.7123,0,0,0,0,0,0,0,-6.666,-6.6678,-6.6847,-6.6822,-6.6827,-6.6833,-6.6847,-6.6916,-6.6976,-6.6912,-6.6914,-6.6929,-6.7033,-6.7063,-6.7073,-6.718,-6.7114,-6.712,-6.7124,-6.7127,-6.735,-6.7352,0,0,0,0,0,0,-6.6647,-6.6671,-6.6843,-6.6851,-6.6743,-6.6838,-6.6854,-6.6894,-6.6976,-6.6987,-6.6931,-6.693,-6.7052,-6.7065,-6.7078,-6.7168,-6.7121,-6.7127,-6.7131,-6.7348,-6.7351,-6.7353,0,0,0,0,0,0,-6.6642,-6.6662,-6.6837,-6.6762,-6.6784,-6.6844,-6.6889,-6.6898,-6.6928,-6.699,-6.7001,-6.6951,-6.7052,-6.7068,-6.7144,-6.7173,-6.713,-6.7136,-6.7346,-6.7349,-6.7352,-6.735,0,0,0,0,0,0,-6.6635,-6.666,-6.6689,-6.6762,-6.6788,-6.6903,-6.689,-6.6902,-6.694,-6.694,-6.7011,-6.7022,-6.7052,-6.7134,-6.7151,-6.7182,-6.7142,-6.7344,-6.7347,-6.7351,-6.7348,-6.7353,-6.7357,0,0,0,0,0,-6.6627,-6.6682,-6.669,-6.6711,-6.6826,-6.6904,-6.6919,-6.6954,-6.6942,-6.6971,-6.7012,-6.7019,-6.7168,-6.7142,-6.7161,-6.7194,-6.7342,-6.7346,-6.735,-6.7346,-6.7352,-6.7357,0,0,0,0,0,0,-6.6608,-6.6692,-6.6702,-6.6783,-6.6837,-6.6908,-6.6945,-6.6959,-6.7015,-6.7013,-6.7053,-6.7069,-6.7143,-6.7177,-6.7146,-6.727,-6.7254,-6.7263,-6.7244,-6.725,-6.7255,-6.7243,-6.7147,0,0,0,0,0,-6.6614,-6.6672,-6.6742,-6.6806,-6.6833,-6.6885,-6.692,-6.6943,-6.6999,-6.7022,-6.7067,-6.7121,-6.718,-6.7217,-6.7275,-6.7354,-6.737,-6.7387,-6.7391,-6.7395,-6.74,-6.7444,-6.7452,-6.7367,-6.7367,-6.7367,0,0,-6.6625,-6.6678,-6.6712,-6.6804,-6.6848,-6.6906,-6.6903,-6.6965,-6.7008,-6.703,-6.7105,-6.7141,-6.7204,-6.7282,-6.7319,-6.7312,-6.7428,-6.74,-6.7402,-6.7406,-6.745,-6.7458,-6.7465,-6.737,-6.7369,-6.7369,0,0,-6.6675,-6.6722,-6.6781,-6.6826,-6.6894,-6.6929,-6.6943,-6.7014,-6.7039,-6.7116,-6.7134,-6.7186,-6.7287,-6.7331,-6.7366,-6.7437,-6.7446,-6.7455,-6.7477,-6.752,-6.7526,-6.7532,-6.7556,-6.7564,-6.7461,-6.7461,-6.7461,0,-6.668,-6.6769,-6.6809,-6.687,-6.691,-6.6936,-6.6996,-6.7038,-6.712,-6.7146,-6.714,-6.7268,-6.7312,-6.74,-6.7418,-6.7447,-6.7463,-6.7445,-6.7522,-6.7529,-6.7535,-6.7558,-6.7567,-6.7462,-6.7462,-6.7462,-6.7462,0,-6.6771,-6.6833,-6.6873,-6.6954,-6.6998,-6.7058,-6.7107,-6.7147,-6.7168,-6.7203,-6.7281,-6.7336,-6.7405,-6.7428,-6.7447,-6.752,-6.7514,-6.7515,-6.7499,-6.7543,-6.7565,-6.7575,-6.7462,-6.7462,-6.7462,-6.7462,0,0,-6.6808,-6.6914,-6.6927,-6.6965,-6.7044,-6.7092,-6.7154,-6.7224,-6.7257,-6.7315,-6.7366,-6.7453,-6.7455,-6.7495,-6.752,-6.7558,-6.761,-6.7554,-6.7556,-6.756,-6.7692,-6.7689,-6.7699,-6.7618,-6.762,-6.7621,-6.7686,0,-6.6866,-6.6978,-6.7017,-6.7109,-6.7166,-6.7194,-6.7248,-6.7302,-6.7338,-6.7391,-6.7431,-6.7491,-6.7489,-6.7514,-6.7553,-6.7595,-6.7636,-6.7591,-6.7665,-6.7667,-6.7645,-6.7711,-6.7708,-6.7766,-6.7695,-6.7697,-6.7698,0,-6.6947,-6.7007,-6.7105,-6.7178,-6.7204,-6.7251,-6.7319,-6.7371,-6.7433,-6.7457,-6.7504,-6.7527,-6.7592,-6.7577,-6.7667,-6.7635,-6.7669,-6.7694,-6.7697,-6.7702,-6.7682,-6.7715,-6.7785,-6.7793,-6.7712,-6.7711,-6.771,0,-6.6962,-6.7068,-6.714,-6.7172,-6.7259,-6.7292,-6.733,-6.7391,-6.7431,-6.7491,-6.7517,-6.7584,-6.7619,-6.7669,-6.771,-6.7695,-6.7796,-6.7783,-6.7816,-6.7815,-6.7832,-6.783,-6.7906,-6.7859,-6.7859,-6.7859,-6.7858,0,-6.702,-6.7078,-6.7148,-6.7192,-6.7259,-6.7305,-6.7369,-6.7408,-6.7463,-6.7515,-6.7544,-6.7592,-6.7644,-6.7699,-6.7731,-6.78,-6.7817,-6.7836,-6.7843,-6.7832,-6.7829,-6.7851,-6.7847,-6.7861,-6.7861,-6.786,-6.786,0,-6.7046,-6.7096,-6.7176,-6.7254,-6.7275,-6.732,-6.7386,-6.743,-6.7469,-6.7535,-6.7553,-6.7613,-6.7679,-6.7726,-6.7811,-6.7833,-6.7907,-6.7915,-6.7885,-6.7888,-6.7917,-6.7913,-6.8008,-6.8022,-6.7968,-6.7968,-6.7969,0,-6.7078,-6.7124,-6.7207,-6.7245,-6.7284,-6.7344,-6.7386,-6.7433,-6.7475,-6.7551,-6.7586,-6.7655,-6.7712,-6.7817,-6.7867,-6.7933,-6.7941,-6.797,-6.7951,-6.7938,-6.7939,-6.7934,-6.7939,-6.7971,-6.7972,-6.7972,-6.7972,0,-6.7129,-6.7153,-6.7212,-6.7281,-6.7331,-6.7387,-6.7444,-6.7473,-6.7531,-6.7577,-6.7646,-6.769,-6.7779,-6.7846,-6.7917,-6.7955,-6.7973,-6.7979,-6.7989,-6.7976,-6.7957,-6.7966,-6.789,-6.7975,-6.7975,-6.7975,-6.7975,-6.7974,-6.7158,-6.72,-6.7266,-6.7332,-6.7381,-6.7433,-6.7479,-6.7525,-6.7583,-6.7659,-6.7685,-6.7756,-6.7819,-6.7916,-6.7956,-6.8012,-6.801,-6.8026,-6.8029,-6.8032,-6.803,-6.7951,-6.8026,-6.8026,-6.8026,-6.8026,-6.8026,0,-6.7209,-6.7254,-6.7315,-6.7394,-6.7446,-6.7462,-6.7526,-6.7567,-6.763,-6.7689,-6.7745,-6.7825,-6.7892,-6.7949,-6.8018,-6.8052,-6.8062,-6.8068,-6.8065,-6.8073,-6.8029,-6.8012,-6.8059,-6.8059,-6.8059,-6.8059,-6.8059,-6.8059,-6.7242,-6.7314,-6.7345,-6.7442,-6.7486,-6.7557,-6.7593,-6.7642,-6.7688,-6.7776,-6.7833,-6.7871,-6.7929,-6.8003,-6.8064,-6.808,-6.8103,-6.8107,-6.8123,-6.808,-6.8076,-6.8072,-6.8056,-6.8112,-6.8112,-6.8163,-6.8163,-6.8163]},{"header":{"parameterUnit":"m.s-1","parameterCategory":1,"la1":30.2991,"la2":30.254,"lo1":-89.0895,"lo2":-89.0444,"dy":0.0017,"dx":0.0017,"nx":28,"ny":28,"refTime":"2024-04-09T03:00:00:Z","depth":0,"parameterNumber":3,"parameterNumberName":"V-component_of_WINDS"},"data":[0,0,0,0,0,0,0,0,0,0,0,0,0,0,0,0,0,0,0,0,0,0,0,0,0,0,0,0,0,0,0,0,0,0,0,0,0,0,0,0,0,0,0,0,0,0,0,0,0,0,0,0,0,0,0,0,0,0,6.3554,6.3554,0,6.3577,6.3578,6.3578,6.352,6.3518,6.3516,6.3514,6.3538,6.354,6.3542,0,0,0,0,0,0,0,0,0,0,0,0,0,6.3462,6.3464,6.3554,6.3554,6.3555,6.3577,6.3578,6.3578,6.352,6.3518,6.3515,6.3513,6.3537,6.354,6.3542,0,0,0,0,0,0,0,0,0,0,0,0,0,6.3495,6.3464,6.3554,6.3528,6.3526,6.3577,6.3578,6.3578,6.352,6.3518,6.3515,6.3512,6.3536,6.3539,6.3543,6.362,0,0,6.3554,6.3555,0,0,0,0,0,0,0,0,6.3493,6.3499,6.3532,6.353,6.3528,6.3543,6.3554,6.3592,6.3521,6.3523,6.3514,6.3511,6.3542,6.3544,6.3555,6.3621,6.3622,6.3554,6.3556,6.3557,6.3558,0,0,0,0,0,0,0,6.3491,6.3497,6.3563,6.3532,6.353,6.3517,6.3518,6.3561,6.3547,6.3522,6.3518,6.3522,6.354,6.3552,6.3555,6.3622,6.3554,6.3557,6.3559,6.356,6.3757,6.376,0,0,0,0,0,0,6.3492,6.3496,6.3563,6.3564,6.3504,6.3521,6.3522,6.3541,6.3547,6.3545,6.3524,6.3519,6.3547,6.3551,6.3556,6.365,6.3557,6.3561,6.3563,6.3754,6.3758,6.3761,0,0,0,0,0,0,6.349,6.3498,6.3562,6.3529,6.3536,6.3525,6.3546,6.3543,6.3554,6.3548,6.3545,6.3538,6.3545,6.3551,6.3605,6.365,6.3562,6.3566,6.3751,6.3755,6.376,6.3837,0,0,0,0,0,0,6.3488,6.3498,6.3526,6.353,6.3538,6.3611,6.3549,6.3545,6.3561,6.3554,6.3561,6.3559,6.3543,6.36,6.3609,6.3653,6.3568,6.3747,6.3753,6.3758,6.383,6.3843,6.3855,0,0,0,0,0,6.3485,6.3546,6.3528,6.3536,6.3573,6.3613,6.3618,6.3598,6.3564,6.3594,6.359,6.3559,6.3643,6.3607,6.3615,6.3661,6.3744,6.3751,6.3758,6.3825,6.3841,6.3854,0,0,0,0,0,0,6.3547,6.3546,6.3526,6.359,6.3602,6.3603,6.3639,6.3615,6.3637,6.363,6.3605,6.3607,6.3668,6.3669,6.3629,6.3738,6.3688,6.3697,6.3735,6.3751,6.3763,6.3762,6.3571,0,0,0,0,0,6.3568,6.36,6.3598,6.3654,6.3662,6.365,6.3666,6.3651,6.3662,6.3667,6.3667,6.368,6.371,6.373,6.3756,6.3829,6.3832,6.3866,6.3878,6.3888,6.3897,6.3941,6.3957,6.3785,6.3784,6.3784,0,0,6.3612,6.3615,6.3637,6.3667,6.3675,6.3711,6.3654,6.3693,6.372,6.3673,6.3726,6.3727,6.3739,6.3805,6.3834,6.3809,6.3945,6.3897,6.3905,6.3909,6.395,6.3966,6.398,6.3789,6.3788,6.3788,0,0,6.3711,6.3716,6.3766,6.3775,6.3788,6.3781,6.3793,6.3798,6.3798,6.385,6.3817,6.3849,6.3899,6.3911,6.3924,6.4032,6.4006,6.4041,6.4106,6.4149,6.4163,6.4175,6.4217,6.4233,6.405,6.405,6.405,0,6.3765,6.3817,6.3794,6.3838,6.3853,6.3813,6.3866,6.3876,6.3897,6.3909,6.388,6.3946,6.3951,6.4021,6.4049,6.4058,6.4074,6.4041,6.4162,6.4174,6.4185,6.4226,6.4241,6.4054,6.4054,6.4053,6.4053,0,6.3884,6.3921,6.396,6.3983,6.4003,6.405,6.4037,6.406,6.4043,6.4039,6.4096,6.4101,6.413,6.4145,6.4128,6.4214,6.4199,6.4166,6.4115,6.4207,6.4245,6.4259,6.4061,6.4059,6.4058,6.4057,0,0,6.4022,6.4035,6.4051,6.4063,6.4076,6.4104,6.4151,6.418,6.4203,6.4219,6.426,6.4305,6.4277,6.4291,6.4275,6.4312,6.4403,6.4276,6.4276,6.4303,6.4504,6.4531,6.4549,6.4385,6.4388,6.439,6.4504,0,6.4124,6.4205,6.4188,6.4268,6.4305,6.4268,6.431,6.4323,6.4321,6.4352,6.4349,6.4384,6.4341,6.4351,6.4386,6.4385,6.4444,6.4376,6.4425,6.4427,6.4427,6.4568,6.4596,6.4704,6.4518,6.4521,6.4523,0,6.4253,6.4277,6.4362,6.4373,6.4387,6.4425,6.4453,6.4482,6.4498,6.4494,6.4512,6.449,6.4539,6.4486,6.4555,6.4509,6.4528,6.4531,6.4535,6.4541,6.4483,6.4582,6.4737,6.4755,6.4545,6.4543,6.4542,0,6.4352,6.4404,6.4463,6.4474,6.4487,6.4515,6.4522,6.4535,6.4555,6.4579,6.4593,6.4622,6.4639,6.4663,6.4651,6.4613,6.4723,6.4668,6.4724,6.4725,6.4751,6.475,6.4915,6.4757,6.4757,6.4757,6.4757,0,6.4469,6.4524,6.4508,6.4545,6.4605,6.4586,6.4647,6.4649,6.4661,6.4699,6.4668,6.4704,6.4684,6.4719,6.4709,6.477,6.4777,6.4777,6.4775,6.4782,6.4783,6.4797,6.479,6.4761,6.476,6.4759,6.4759,0,6.4591,6.4582,6.4644,6.4653,6.4656,6.4701,6.4709,6.4744,6.474,6.4789,6.4799,6.4793,6.4834,6.4823,6.4866,6.4859,6.4938,6.4924,6.4934,6.4932,6.499,6.4986,6.5172,6.5198,6.502,6.5022,6.5023,0,6.4668,6.4709,6.4723,6.4747,6.4757,6.4794,6.4816,6.4799,6.4822,6.4845,6.4879,6.4916,6.4946,6.5012,6.5012,6.5046,6.5035,6.5098,6.504,6.5048,6.5041,6.5041,6.5047,6.5111,6.5113,6.5114,6.5116,0,6.4808,6.4803,6.4835,6.4867,6.4894,6.4918,6.4939,6.496,6.4945,6.4974,6.5015,6.5038,6.5084,6.5123,6.5155,6.5163,6.5139,6.5134,6.5149,6.5159,6.5165,6.5167,6.4969,6.513,6.5129,6.5128,6.5127,6.5126,6.4913,6.495,6.4967,6.5005,6.5019,6.5041,6.5076,6.5078,6.5112,6.5149,6.5136,6.5185,6.5202,6.5243,6.5255,6.5294,6.527,6.5291,6.5297,6.5304,6.5314,6.5156,6.5298,6.5298,6.5298,6.5297,6.5297,0,6.5055,6.5065,6.51,6.5132,6.5163,6.5137,6.516,6.5188,6.5232,6.525,6.5281,6.5331,6.5369,6.5373,6.541,6.5441,6.5431,6.5452,6.5451,6.5455,6.533,6.5315,6.5459,6.5459,6.5459,6.5459,6.5459,6.5459,6.5133,6.5196,6.5193,6.5264,6.5273,6.5322,6.5338,6.5359,6.5374,6.5431,6.5464,6.5466,6.548,6.5519,6.5554,6.5554,6.5571,6.5597,6.5594,6.5478,6.5462,6.5447,6.5433,6.56,6.56,6.5715,6.5716,6.5717]}]]